Marshall, MN

3:22 AM CDT on March 27, 2017 (GMT -0500)
Marshall Municipal-Ryan

Weather History for KMML - February, 2013

Change the Weather History Date:

Tuesday, February 12, 2013

  Actual Average Record
Temperature  
Mean Temperature 24 °F -  
Max Temperature 30 °F 27 °F 57 °F (1990)
Min Temperature 17 °F 7 °F -19 °F (1955)
Degree Days  
Heating Degree Days 42    
Moisture  
Dew Point 16 °F    
Average Humidity 73    
Maximum Humidity 86    
Minimum Humidity 64    
Precipitation  
Precipitation 0.00 in - - ()
Sea Level Pressure  
Sea Level Pressure 29.88 in    
Wind  
Wind Speed 13 mph (WSW)    
Max Wind Speed 23 mph    
Max Gust Speed 29 mph    
Visibility 10 miles    
Events      
Averages and records for this station are not official NWS values.
T = Trace of Precipitation, MM = Missing Value Source: NWS Daily Summary

Daily Weather History Graph

Daily Weather History Graph

Search for Another Location

Airport or City:

Trip Planner

Search our weather history database for the weather conditions in past years. The results will help you decide how hot, cold, wet, or windy it might be!

Date:

Astronomy

Feb. 12, 2013 Rise Set
Actual Time 7:27 AM CST 5:48 PM CST
Civil Twilight 6:57 AM CST 6:18 PM CST
Nautical Twilight 6:22 AM CST 6:52 PM CST
Astronomical Twilight 5:49 AM CST 7:26 PM CST
Moon 8:16 AM CST (2/12) 9:00 PM CST (2/12)
Length of Visible Light 11h 21m
Length of Day
10h 21m
Waxing Crescent, 7% of the Moon is Illuminated
Feb 12
Waxing Crescent
Feb 17
First Quarter
Feb 25
Full
Mar 4
Last Quarter
Mar 11
New

Hourly Weather History & Observations

Time (CST) Temp. Windchill Dew Point Humidity Pressure Visibility Wind Dir Wind Speed Gust Speed Precip Events Conditions
12:15 AM 21.2 °F 11.7 °F 14.0 °F 74% 30.03 in 10.0 mi SSW 8.1 mph - N/A   Overcast
12:35 AM 19.4 °F 8.6 °F 15.8 °F 86% 30.02 in 10.0 mi SSW 9.2 mph - N/A   Overcast
12:55 AM 19.4 °F 8.6 °F 12.2 °F 74% 30.02 in 10.0 mi SSW 9.2 mph - N/A   Overcast
1:15 AM 17.6 °F 6.4 °F 12.2 °F 79% 30.01 in 10.0 mi SSW 9.2 mph - N/A   Scattered Clouds
1:35 AM 17.6 °F 7.3 °F 14.0 °F 86% 30.00 in 10.0 mi South 8.1 mph - N/A   Clear
1:55 AM 17.6 °F 7.3 °F 12.2 °F 79% 29.99 in 10.0 mi South 8.1 mph - N/A   Clear
2:15 AM 17.6 °F 7.3 °F 12.2 °F 79% 29.99 in 10.0 mi South 8.1 mph - N/A   Clear
2:35 AM 17.6 °F 5.0 °F 10.4 °F 73% 29.99 in 10.0 mi South 11.5 mph - N/A   Clear
2:55 AM 19.4 °F 5.0 °F 14.0 °F 80% 29.97 in 10.0 mi SW 16.1 mph - N/A   Clear
3:15 AM 21.2 °F 8.3 °F 15.8 °F 80% 29.97 in 10.0 mi SW 13.8 mph 19.6 mph N/A   Clear
3:35 AM 19.4 °F 4.5 °F 14.0 °F 80% 29.95 in 10.0 mi SW 17.3 mph - N/A   Clear
3:55 AM 19.4 °F 5.5 °F 14.0 °F 80% 29.93 in 10.0 mi SW 15.0 mph - N/A   Clear
4:15 AM 21.2 °F 6.4 °F 12.2 °F 68% 29.93 in 10.0 mi SW 18.4 mph - N/A   Clear
4:35 AM 19.4 °F 5.0 °F 12.2 °F 74% 29.91 in 10.0 mi SSW 16.1 mph - N/A   Clear
4:55 AM 21.2 °F 4.9 °F 12.2 °F 68% 29.89 in 10.0 mi SW 23.0 mph 28.8 mph N/A   Clear
5:15 AM 23.0 °F 7.2 °F 14.0 °F 68% 29.89 in 10.0 mi SW 23.0 mph 28.8 mph N/A   Clear
5:35 AM 21.2 °F 5.6 °F 14.0 °F 74% 29.89 in 10.0 mi SW 20.7 mph - N/A   Clear
5:55 AM 21.2 °F 6.0 °F 14.0 °F 74% 29.89 in 10.0 mi SW 19.6 mph 26.5 mph N/A   Clear
6:15 AM 21.2 °F 6.4 °F 12.2 °F 68% 29.89 in 10.0 mi SW 18.4 mph - N/A   Scattered Clouds
6:35 AM 21.2 °F 6.4 °F 12.2 °F 68% 29.89 in 10.0 mi SW 18.4 mph - N/A   Mostly Cloudy
6:55 AM 23.0 °F 8.7 °F 14.0 °F 68% 29.89 in 10.0 mi SW 18.4 mph - N/A   Scattered Clouds
7:15 AM 23.0 °F 9.2 °F 15.8 °F 74% 29.89 in 10.0 mi SW 17.3 mph - N/A   Scattered Clouds
7:35 AM 24.8 °F 12.4 °F 15.8 °F 69% 29.89 in 10.0 mi SSW 15.0 mph - N/A   Mostly Cloudy
7:55 AM 23.0 °F 10.1 °F 15.8 °F 74% 29.89 in 10.0 mi SSW 15.0 mph - N/A   Scattered Clouds
8:15 AM 23.0 °F 10.1 °F 15.8 °F 74% 29.89 in 10.0 mi SSW 15.0 mph - N/A   Scattered Clouds
8:35 AM 24.8 °F 11.9 °F 15.8 °F 69% 29.89 in 10.0 mi SSW 16.1 mph - N/A   Scattered Clouds
8:55 AM 24.8 °F 12.9 °F 15.8 °F 69% 29.89 in 10.0 mi SSW 13.8 mph - N/A   Scattered Clouds
9:15 AM 24.8 °F 13.4 °F 17.6 °F 74% 29.88 in 10.0 mi SSW 12.7 mph - N/A   Partly Cloudy
9:35 AM 26.6 °F 14.3 °F 15.8 °F 64% 29.88 in 10.0 mi SSW 16.1 mph - N/A   Partly Cloudy
9:55 AM 26.6 °F 14.7 °F 17.6 °F 69% 29.88 in 10.0 mi SW 15.0 mph - N/A   Clear
10:15 AM 26.6 °F 13.1 °F 15.8 °F 64% 29.87 in 10.0 mi SW 19.6 mph - N/A   Clear
10:35 AM 26.6 °F 13.1 °F 15.8 °F 64% 29.87 in 10.0 mi SW 19.6 mph - N/A   Clear
10:55 AM 26.6 °F 13.1 °F 15.8 °F 64% 29.87 in 10.0 mi WSW 19.6 mph - N/A   Clear
11:15 AM 26.6 °F 15.2 °F 15.8 °F 64% 29.88 in 10.0 mi WSW 13.8 mph - N/A   Clear
11:35 AM 26.6 °F 15.2 °F 17.6 °F 69% 29.88 in 10.0 mi WSW 13.8 mph - N/A   Clear
11:55 AM 28.4 °F 18.5 °F 17.6 °F 64% 29.87 in 10.0 mi WSW 11.5 mph - N/A   Clear
12:15 PM 28.4 °F 18.0 °F 17.6 °F 64% 29.85 in 10.0 mi WSW 12.7 mph - N/A   Clear
12:35 PM 28.4 °F 17.5 °F 17.6 °F 64% 29.84 in 10.0 mi West 13.8 mph - N/A   Clear
12:55 PM 28.4 °F 18.0 °F 17.6 °F 64% 29.84 in 10.0 mi West 12.7 mph - N/A   Clear
1:15 PM 28.4 °F 19.1 °F 17.6 °F 64% 29.84 in 10.0 mi West 10.4 mph - N/A   Clear
1:35 PM 30.2 °F 21.9 °F 19.4 °F 64% 29.83 in 10.0 mi WSW 9.2 mph - N/A   Clear
1:55 PM 30.2 °F 21.9 °F 19.4 °F 64% 29.84 in 10.0 mi West 9.2 mph - N/A   Clear
2:15 PM 30.2 °F 21.3 °F 19.4 °F 64% 29.85 in 10.0 mi West 10.4 mph - N/A   Clear
2:35 PM 30.2 °F 20.2 °F 19.4 °F 64% 29.85 in 10.0 mi West 12.7 mph - N/A   Clear
2:55 PM 30.2 °F 19.8 °F 19.4 °F 64% 29.85 in 10.0 mi NW 13.8 mph - N/A   Clear
3:15 PM 28.4 °F 19.1 °F 21.2 °F 74% 29.85 in 10.0 mi NW 10.4 mph - N/A   Clear
3:35 PM 30.2 °F 21.9 °F 21.2 °F 69% 29.86 in 10.0 mi West 9.2 mph - N/A   Clear
3:55 PM 28.4 °F 18.5 °F 19.4 °F 69% 29.86 in 10.0 mi West 11.5 mph - N/A   Clear
4:15 PM 28.4 °F 18.0 °F 19.4 °F 69% 29.85 in 10.0 mi West 12.7 mph - N/A   Clear
4:35 PM 28.4 °F 18.5 °F 19.4 °F 69% 29.85 in 10.0 mi West 11.5 mph - N/A   Clear
4:55 PM 26.6 °F 17.5 °F 19.4 °F 74% 29.84 in 10.0 mi West 9.2 mph - N/A   Clear
5:15 PM 26.6 °F 17.5 °F 19.4 °F 74% 29.84 in 10.0 mi West 9.2 mph - N/A   Clear
5:35 PM 24.8 °F 16.1 °F 17.6 °F 74% 29.84 in 10.0 mi West 8.1 mph - N/A   Clear
5:55 PM 23.0 °F 13.1 °F 15.8 °F 74% 29.84 in 10.0 mi West 9.2 mph - N/A   Clear
6:15 PM 23.0 °F 13.1 °F 15.8 °F 74% 29.84 in 10.0 mi West 9.2 mph - N/A   Clear
6:35 PM 21.2 °F 11.7 °F 14.0 °F 74% 29.85 in 10.0 mi West 8.1 mph - N/A   Clear
6:55 PM 21.2 °F 9.5 °F 15.8 °F 80% 29.85 in 10.0 mi West 11.5 mph - N/A   Clear
7:15 PM 21.2 °F 8.9 °F 15.8 °F 80% 29.85 in 10.0 mi West 12.7 mph - N/A   Clear
7:35 PM 21.2 °F 8.9 °F 15.8 °F 80% 29.84 in 10.0 mi West 12.7 mph - N/A   Clear
7:55 PM 23.0 °F 11.7 °F 15.8 °F 74% 29.83 in 10.0 mi West 11.5 mph - N/A   Clear
8:15 PM 23.0 °F 11.1 °F 15.8 °F 74% 29.83 in 10.0 mi West 12.7 mph - N/A   Clear
8:35 PM 23.0 °F 12.4 °F 15.8 °F 74% 29.83 in 10.0 mi West 10.4 mph - N/A   Clear
8:55 PM 23.0 °F 11.7 °F 15.8 °F 74% 29.83 in 10.0 mi West 11.5 mph - N/A   Clear
9:35 PM 23.0 °F 10.1 °F 15.8 °F 74% 29.84 in 10.0 mi WNW 15.0 mph - N/A   Clear
9:55 PM 21.2 °F 7.8 °F 15.8 °F 80% 29.84 in 10.0 mi West 15.0 mph - N/A   Clear
10:15 PM 21.2 °F 9.5 °F 15.8 °F 80% 29.84 in 10.0 mi West 11.5 mph - N/A   Clear
10:35 PM 21.2 °F 10.1 °F 17.6 °F 86% 29.83 in 10.0 mi WSW 10.4 mph - N/A   Clear
10:55 PM 21.2 °F 10.9 °F 15.8 °F 80% 29.83 in 10.0 mi West 9.2 mph - N/A   Clear
11:15 PM 21.2 °F 9.5 °F 15.8 °F 80% 29.83 in 10.0 mi West 11.5 mph - N/A   Clear
11:35 PM 21.2 °F 8.9 °F 15.8 °F 80% 29.82 in 10.0 mi West 12.7 mph - N/A   Clear
11:55 PM 21.2 °F 8.3 °F 15.8 °F 80% 29.81 in 10.0 mi West 13.8 mph - N/A   Mostly Cloudy